FW6537 Weather Reports


time (UTC)temp
C
wind
direction
speed
KPH
gust
KPH
rain 1hr
cm
rain 24hr
cm
rain mn
cm
humidity
%
barometer
mb
20260831193152 20 96 0.0 0.0 0.00 0.00 0.00 90 1017.3
20260831191627 20 96 0.0 0.0 0.00 0.00 0.00 90 1017.3
20260831190135 20 96 0.0 1.6 0.00 0.00 0.00 90 1017.5
20260831184630 20 101 0.0 1.6 0.00 0.00 0.00 91 1017.7
20260831183126 20 101 0.0 1.6 0.00 0.00 0.00 91 1017.9
20260831181623 20 86 0.0 1.6 0.00 0.00 0.00 91 1017.8
20260831180124 20 82 0.0 0.0 0.00 0.00 0.00 91 1018.2
20260831174638 20 82 0.0 1.6 0.00 0.00 0.00 90 1018.4
20260831173131 20 102 0.0 4.8 0.00 0.00 0.00 89 1018.4
20260831171733 20 68 0.0 1.6 0.00 0.00 0.00 89 1018.5
20260831170146 20 72 0.0 0.0 0.00 0.00 0.00 89 1018.6
20260831164621 20 72 0.0 1.6 0.00 0.00 0.00 88 1018.8
20260831163122 20 75 0.0 1.6 0.00 0.00 0.00 88 1019.0
20260831161628 20 82 0.0 3.2 0.00 0.00 0.00 87 1019.2
20260831160128 20 44 1.6 4.8 0.00 0.00 0.00 89 1018.9
20260831154629 20 82 0.0 1.6 0.00 0.00 0.00 90 1019.1
20260831153145 20 57 0.0 1.6 0.00 0.00 0.00 90 1019.0
20260831151636 20 65 0.0 0.0 0.00 0.00 0.00 88 1019.3
20260831150139 20 62 0.0 3.2 0.00 0.00 0.00 87 1019.2
20260831144638 20 49 0.0 9.7 0.00 0.00 0.00 85 1019.1
20260831143133 20 73 3.2 9.7 0.00 0.00 0.00 84 1018.8
20260831141646 20 159 0.0 0.0 0.00 0.00 0.00 87 1018.9
20260831140204 20 157 0.0 1.6 0.00 0.00 0.00 87 1019.1
20260831134634 19 51 0.0 3.2 0.00 0.00 0.00 88 1019.0
20260831133149 18 56 0.0 4.8 0.00 0.00 0.00 90 1019.0
20260831131659 18 104 0.0 1.6 0.00 0.00 0.00 91 1018.9
20260831130132 17 27 1.6 3.2 0.00 0.00 0.00 92 1019.0
20260831124628 17 89 0.0 1.6 0.00 0.00 0.00 93 1019.0
20260831123123 17 95 0.0 0.0 0.00 0.00 0.00 93 1019.2
20260831121637 17 95 0.0 1.6 0.00 0.00 0.00 94 1019.2
20260831120135 17 95 0.0 3.2 0.00 0.00 0.00 94 1019.4
20260831114629 17 96 0.0 0.0 0.00 0.00 0.00 95 1019.5
20260831113126 16 96 0.0 0.0 0.00 0.00 0.00 95 1019.2
20260831111624 16 96 0.0 1.6 0.00 0.00 0.00 95 1019.3
20260831110146 16 96 0.0 0.0 0.00 0.00 0.00 95 1019.3
20260831104636 16 96 0.0 0.0 0.00 0.00 0.00 95 1019.4
20260831103138 16 96 0.0 0.0 0.00 0.00 0.00 94 1019.0
20260831101656 16 96 0.0 0.0 0.00 0.00 0.00 94 1018.8
20260831100128 16 96 0.0 0.0 0.00 0.00 0.00 94 1018.7
20260831094645 16 96 0.0 0.0 0.00 0.00 0.00 94 1018.6
20260831093138 16 96 0.0 0.0 0.00 0.00 0.00 93 1018.8
20260831091632 17 96 0.0 0.0 0.00 0.00 0.00 93 1018.9
20260831090128 17 96 0.0 0.0 0.00 0.00 0.00 92 1018.8
20260831084625 17 96 0.0 0.0 0.00 0.00 0.00 92 1018.8
20260831083143 17 96 0.0 1.6 0.00 0.00 0.00 92 1018.8
20260831081644 17 96 0.0 0.0 0.00 0.00 0.00 93 1018.8
20260831080135 17 96 0.0 0.0 0.00 0.00 0.00 93 1018.7
20260831074637 17 97 0.0 0.0 0.00 0.00 0.00 93 1018.6
20260831073137 17 97 0.0 0.0 0.00 0.00 0.00 93 1018.7
20260831071653 17 97 0.0 1.6 0.00 0.00 0.00 93 1018.5
20260831070129 17 97 0.0 0.0 0.00 0.00 0.00 93 1018.8
20260831064622 17 97 0.0 1.6 0.00 0.00 0.00 93 1018.6
20260831063140 17 97 0.0 0.0 0.00 0.00 0.00 93 1018.8
20260831061643 17 97 0.0 1.6 0.00 0.00 0.00 93 1018.7
20260831060133 17 97 0.0 0.0 0.00 0.00 0.00 93 1018.8
20260831054640 17 97 0.0 1.6 0.00 0.00 0.00 93 1019.0
20260831053136 17 97 0.0 0.0 0.00 0.00 0.00 94 1019.2
20260831051633 17 97 0.0 0.0 0.00 0.00 0.00 94 1019.5
20260831050136 17 97 0.0 0.0 0.00 0.00 0.00 94 1019.5
20260831044622 17 97 0.0 0.0 0.00 0.00 0.00 94 1019.3
20260831043141 17 97 0.0 0.0 0.00 0.00 0.00 95 1019.3
20260831041626 17 98 0.0 0.0 0.00 0.00 0.00 94 1019.3
20260831040200 17 97 0.0 0.0 0.00 0.00 0.00 94 1019.3
20260831034640 17 97 0.0 0.0 0.00 0.00 0.00 94 1019.3
20260831033135 17 97 0.0 0.0 0.00 0.00 0.00 94 1019.3
20260831031635 17 97 0.0 0.0 0.00 0.00 0.00 94 1019.2
20260831024634 17 97 0.0 0.0 0.00 0.00 0.00 93 1019.2
20260831023133 18 97 0.0 0.0 0.00 0.00 0.00 93 1019.1
20260831021632 18 97 0.0 0.0 0.00 0.00 0.00 92 1019.1
20260831020129 18 97 0.0 0.0 0.00 0.00 0.00 92 1019.1
20260831014623 18 97 0.0 0.0 0.00 0.00 0.00 91 1018.9
20260831013141 18 97 0.0 0.0 0.00 0.00 0.00 90 1019.1
20260831011645 19 97 0.0 0.0 0.00 0.00 0.00 90 1019.1
20260831010138 19 97 0.0 0.0 0.00 0.00 0.00 89 1019.1
20260831004635 20 89 0.0 0.0 0.00 0.00 0.00 88 1019.1
20260831003137 20 105 0.0 4.8 0.00 0.00 0.00 88 1018.7
20260831001634 20 84 0.0 0.0 0.00 0.00 0.00 88 1018.3
20260831000149 20 95 0.0 0.0 0.00 0.00 0.00 87 1018.2
20260830234642 20 95 0.0 3.2 0.00 0.00 0.00 87 1018.2
20260830233144 20 88 0.0 0.0 0.00 0.00 0.00 87 1018.2
20260830231708 20 89 0.0 3.2 0.00 0.00 0.00 87 1018.0
20260830230159 20 98 1.6 4.8 0.00 0.00 0.00 87 1018.0
20260830224657 20 97 0.0 0.0 0.00 0.00 0.00 87 1018.1
20260830223135 20 101 0.0 0.0 0.00 0.00 0.00 88 1018.0
20260830221633 20 105 0.0 3.2 0.00 0.00 0.00 88 1018.0
20260830220132 20 99 0.0 1.6 0.00 0.00 0.00 88 1018.0
20260830214645 20 113 0.0 0.0 0.00 0.00 0.00 87 1018.0
20260830213124 20 129 0.0 0.0 0.00 0.00 0.00 88 1018.0
20260830211728 20 129 0.0 0.0 0.00 0.00 0.00 87 1018.0
20260830210145 20 129 0.0 0.0 0.00 0.00 0.00 87 1018.0
20260830204624 20 129 0.0 0.0 0.00 0.00 0.00 87 1018.0
20260830203124 19 130 0.0 0.0 0.00 0.00 0.00 88 1018.1
20260830201623 19 136 0.0 4.8 0.00 0.00 0.00 88 1018.2
20260830200140 20 136 0.0 1.6 0.00 0.00 0.00 87 1018.0
20260830194622 20 123 1.6 3.2 0.00 0.00 0.00 86 1018.1